| time (UTC) | temp F | wind direction | speed MPH | gust MPH | rain 1hr in | rain 24hr in | rain mn in | humidity % | barometer mb |
| 20260901163105 | 86 | 326 | 0.0 | 0.0 | 0.00 | 0.00 | 0.00 | 85 | 1018.6 |
| 20260901162605 | 86 | 327 | 1.0 | 3.0 | 0.00 | 0.00 | 0.00 | 82 | 1018.6 |
| 20260901162104 | 86 | 321 | 0.0 | 2.0 | 0.00 | 0.00 | 0.00 | 82 | 1018.7 |
| 20260901161605 | 86 | 335 | 0.0 | 5.0 | 0.00 | 0.00 | 0.00 | 82 | 1018.7 |
| 20260901161105 | 86 | 317 | 1.0 | 6.0 | 0.00 | 0.00 | 0.00 | 83 | 1018.9 |
| 20260901160604 | 85 | 313 | 0.0 | 0.0 | 0.00 | 0.00 | 0.00 | 81 | 1018.9 |
| 20260901160109 | 85 | 313 | 0.0 | 1.0 | 0.00 | 0.00 | 0.00 | 80 | 1019.0 |
| 20260901155604 | 86 | 315 | 0.0 | 0.0 | 0.00 | 0.00 | 0.00 | 82 | 1019.0 |
| 20260901155105 | 86 | 308 | 0.0 | 1.0 | 0.00 | 0.00 | 0.00 | 81 | 1019.0 |
| 20260901154604 | 87 | 309 | 0.0 | 3.0 | 0.00 | 0.00 | 0.00 | 83 | 1019.1 |
| 20260901154105 | 86 | 334 | 1.0 | 3.0 | 0.00 | 0.00 | 0.00 | 83 | 1019.1 |
| 20260901153605 | 86 | 301 | 1.0 | 3.0 | 0.00 | 0.00 | 0.00 | 83 | 1019.1 |
| 20260901153104 | 85 | 320 | 0.0 | 0.0 | 0.00 | 0.00 | 0.00 | 85 | 1019.2 |
| 20260901152604 | 85 | 315 | 0.0 | 1.0 | 0.00 | 0.00 | 0.00 | 85 | 1019.2 |
| 20260901152104 | 85 | 51 | 0.0 | 2.0 | 0.00 | 0.00 | 0.00 | 86 | 1019.2 |
| 20260901151605 | 84 | 19 | 0.0 | 1.0 | 0.00 | 0.00 | 0.00 | 87 | 1019.2 |
| 20260901151104 | 83 | 326 | 0.0 | 3.0 | 0.00 | 0.00 | 0.00 | 87 | 1019.2 |
| 20260901150108 | 83 | 11 | 1.0 | 5.0 | 0.00 | 0.00 | 0.00 | 89 | 1019.2 |
| 20260901145605 | 82 | 136 | 2.0 | 3.0 | 0.00 | 0.00 | 0.00 | 91 | 1019.2 |
| 20260901145105 | 82 | 317 | 2.0 | 3.0 | 0.00 | 0.00 | 0.00 | 92 | 1019.1 |
| 20260901144604 | 81 | 58 | 1.0 | 3.0 | 0.00 | 0.00 | 0.00 | 94 | 1019.0 |
| 20260901143604 | 79 | 339 | 1.0 | 2.0 | 0.00 | 0.00 | 0.00 | 95 | 1019.0 |
| 20260901142604 | 79 | 336 | 0.0 | 3.0 | 0.00 | 0.00 | 0.00 | 95 | 1018.9 |
| 20260901142105 | 79 | 331 | 0.0 | 2.0 | 0.00 | 0.00 | 0.00 | 95 | 1018.9 |
| 20260901141605 | 78 | 329 | 2.0 | 5.0 | 0.00 | 0.00 | 0.00 | 95 | 1018.8 |
| 20260901140604 | 78 | 359 | 1.0 | 2.0 | 0.00 | 0.00 | 0.00 | 96 | 1018.8 |
| 20260901140108 | 78 | 359 | 1.0 | 2.0 | 0.00 | 0.00 | 0.00 | 95 | 1018.7 |
| 20260901135604 | 78 | 1 | 1.0 | 3.0 | 0.00 | 0.00 | 0.00 | 96 | 1018.6 |
| 20260901135104 | 77 | 355 | 1.0 | 3.0 | 0.00 | 0.00 | 0.00 | 95 | 1018.7 |
| 20260901133604 | 77 | 317 | 1.0 | 3.0 | 0.00 | 0.00 | 0.00 | 95 | 1018.7 |
| 20260901133105 | 77 | 322 | 1.0 | 5.0 | 0.00 | 0.00 | 0.00 | 95 | 1018.7 |
| 20260901132605 | 77 | 319 | 2.0 | 5.0 | 0.00 | 0.00 | 0.00 | 95 | 1018.6 |
| 20260901132105 | 77 | 313 | 2.0 | 3.0 | 0.00 | 0.00 | 0.00 | 95 | 1018.6 |
| 20260901131604 | 76 | 312 | 1.0 | 3.0 | 0.00 | 0.00 | 0.00 | 96 | 1018.6 |
| 20260901131105 | 76 | 312 | 3.0 | 3.0 | 0.00 | 0.00 | 0.00 | 96 | 1018.5 |
| 20260901130604 | 76 | 315 | 2.0 | 3.0 | 0.00 | 0.00 | 0.00 | 95 | 1018.5 |
| 20260901130110 | 76 | 315 | 2.0 | 3.0 | 0.00 | 0.00 | 0.00 | 95 | 1018.5 |
| 20260901125604 | 76 | 309 | 1.0 | 3.0 | 0.00 | 0.00 | 0.00 | 95 | 1018.6 |
| 20260901125104 | 76 | 305 | 0.0 | 3.0 | 0.00 | 0.00 | 0.00 | 95 | 1018.5 |
| 20260901124605 | 76 | 310 | 2.0 | 3.0 | 0.00 | 0.00 | 0.00 | 95 | 1018.5 |
| 20260901124105 | 76 | 308 | 0.0 | 1.0 | 0.00 | 0.00 | 0.00 | 96 | 1018.4 |
| 20260901123604 | 76 | 308 | 0.0 | 2.0 | 0.00 | 0.00 | 0.00 | 95 | 1018.4 |
| 20260901123104 | 75 | 308 | 1.0 | 3.0 | 0.00 | 0.00 | 0.00 | 95 | 1018.3 |
| 20260901122605 | 75 | 308 | 1.0 | 2.0 | 0.00 | 0.00 | 0.00 | 95 | 1018.2 |
| 20260901121604 | 75 | 309 | 2.0 | 3.0 | 0.00 | 0.00 | 0.00 | 95 | 1018.1 |
| 20260901121105 | 75 | 315 | 2.0 | 3.0 | 0.00 | 0.00 | 0.00 | 95 | 1018.0 |
| 20260901120604 | 75 | 315 | 1.0 | 2.0 | 0.00 | 0.00 | 0.00 | 95 | 1018.0 |
| 20260901120109 | 75 | 315 | 0.0 | 1.0 | 0.00 | 0.00 | 0.00 | 95 | 1018.0 |
| 20260901115605 | 75 | 315 | 0.0 | 0.0 | 0.00 | 0.00 | 0.00 | 95 | 1017.9 |
| 20260901114104 | 75 | 315 | 0.0 | 1.0 | 0.00 | 0.00 | 0.00 | 95 | 1017.8 |
| 20260901113604 | 75 | 315 | 1.0 | 3.0 | 0.00 | 0.00 | 0.00 | 95 | 1017.7 |
| 20260901113105 | 75 | 315 | 1.0 | 2.0 | 0.00 | 0.00 | 0.00 | 95 | 1017.7 |
| 20260901112604 | 75 | 315 | 0.0 | 2.0 | 0.00 | 0.00 | 0.00 | 95 | 1017.8 |
| 20260901112104 | 75 | 315 | 0.0 | 0.0 | 0.00 | 0.00 | 0.00 | 95 | 1017.9 |
| 20260901111604 | 75 | 315 | 0.0 | 2.0 | 0.00 | 0.00 | 0.00 | 95 | 1017.8 |
| 20260901111105 | 75 | 315 | 0.0 | 2.0 | 0.00 | 0.00 | 0.00 | 95 | 1017.7 |
| 20260901110604 | 75 | 315 | 0.0 | 0.0 | 0.00 | 0.00 | 0.00 | 95 | 1017.7 |
| 20260901105605 | 75 | 315 | 0.0 | 1.0 | 0.00 | 0.00 | 0.00 | 95 | 1017.6 |
| 20260901105104 | 75 | 315 | 0.0 | 0.0 | 0.00 | 0.00 | 0.00 | 95 | 1017.5 |
| 20260901104604 | 75 | 315 | 0.0 | 1.0 | 0.00 | 0.00 | 0.00 | 95 | 1017.4 |
| 20260901104104 | 75 | 315 | 0.0 | 1.0 | 0.00 | 0.00 | 0.00 | 95 | 1017.4 |
| 20260901103604 | 75 | 315 | 0.0 | 1.0 | 0.00 | 0.00 | 0.00 | 95 | 1017.3 |
| 20260901103105 | 75 | 315 | 0.0 | 1.0 | 0.00 | 0.00 | 0.00 | 95 | 1017.4 |
| 20260901102604 | 75 | 315 | 0.0 | 1.0 | 0.00 | 0.00 | 0.00 | 95 | 1017.3 |
| 20260901102104 | 75 | 315 | 0.0 | 0.0 | 0.00 | 0.00 | 0.00 | 95 | 1017.3 |
| 20260901101605 | 75 | 315 | 0.0 | 0.0 | 0.00 | 0.00 | 0.00 | 95 | 1017.3 |
| 20260901101104 | 75 | 315 | 0.0 | 3.0 | 0.00 | 0.00 | 0.00 | 95 | 1017.3 |
| 20260901100604 | 75 | 316 | 1.0 | 3.0 | 0.00 | 0.00 | 0.00 | 95 | 1017.2 |
| 20260901100107 | 75 | 314 | 0.0 | 3.0 | 0.00 | 0.00 | 0.00 | 95 | 1017.2 |
| 20260901095604 | 75 | 314 | 1.0 | 3.0 | 0.00 | 0.00 | 0.00 | 95 | 1017.2 |
| 20260901095104 | 74 | 313 | 1.0 | 3.0 | 0.00 | 0.00 | 0.00 | 95 | 1017.2 |
| 20260901094104 | 74 | 313 | 1.0 | 3.0 | 0.00 | 0.00 | 0.00 | 95 | 1017.1 |
| 20260901093604 | 75 | 315 | 2.0 | 3.0 | 0.00 | 0.00 | 0.00 | 95 | 1017.1 |
| 20260901093104 | 75 | 322 | 1.0 | 2.0 | 0.00 | 0.00 | 0.00 | 95 | 1017.0 |
| 20260901092604 | 75 | 322 | 1.0 | 2.0 | 0.00 | 0.00 | 0.00 | 95 | 1017.0 |
| 20260901092104 | 74 | 322 | 1.0 | 3.0 | 0.00 | 0.00 | 0.00 | 95 | 1016.9 |
| 20260901091604 | 74 | 323 | 1.0 | 3.0 | 0.00 | 0.00 | 0.00 | 95 | 1016.9 |
| 20260901091104 | 74 | 323 | 1.0 | 3.0 | 0.00 | 0.00 | 0.00 | 95 | 1016.8 |
| 20260901090605 | 74 | 324 | 1.0 | 3.0 | 0.00 | 0.00 | 0.00 | 95 | 1016.8 |
| 20260901090108 | 74 | 323 | 1.0 | 3.0 | 0.00 | 0.00 | 0.00 | 95 | 1016.8 |
| 20260901085104 | 74 | 321 | 0.0 | 0.0 | 0.00 | 0.00 | 0.00 | 94 | 1016.7 |
| 20260901084604 | 74 | 330 | 0.0 | 0.0 | 0.00 | 0.00 | 0.00 | 94 | 1016.6 |
| 20260901084104 | 74 | 330 | 0.0 | 0.0 | 0.00 | 0.00 | 0.00 | 94 | 1016.6 |
| 20260901083604 | 74 | 330 | 0.0 | 0.0 | 0.00 | 0.00 | 0.00 | 94 | 1016.7 |
| 20260901082104 | 74 | 330 | 0.0 | 0.0 | 0.00 | 0.00 | 0.00 | 94 | 1016.7 |
| 20260901081604 | 74 | 330 | 0.0 | 0.0 | 0.00 | 0.00 | 0.00 | 94 | 1016.7 |
| 20260901081103 | 74 | 330 | 0.0 | 0.0 | 0.00 | 0.00 | 0.00 | 94 | 1016.7 |
| 20260901080604 | 74 | 330 | 0.0 | 0.0 | 0.00 | 0.00 | 0.00 | 94 | 1016.7 |
| 20260901075604 | 74 | 330 | 0.0 | 0.0 | 0.00 | 0.00 | 0.00 | 94 | 1016.7 |
| 20260901075104 | 74 | 330 | 0.0 | 0.0 | 0.00 | 0.00 | 0.00 | 94 | 1016.8 |
| 20260901074605 | 74 | 330 | 0.0 | 0.0 | 0.00 | 0.00 | 0.00 | 94 | 1016.8 |
| 20260901073604 | 74 | 330 | 0.0 | 0.0 | 0.00 | 0.00 | 0.00 | 94 | 1016.9 |
| 20260901073104 | 74 | 330 | 0.0 | 0.0 | 0.00 | 0.00 | 0.00 | 94 | 1017.0 |
| 20260901072604 | 74 | 330 | 0.0 | 0.0 | 0.00 | 0.00 | 0.00 | 94 | 1017.0 |
| 20260901072105 | 74 | 330 | 0.0 | 0.0 | 0.00 | 0.00 | 0.00 | 94 | 1017.1 |
| 20260901071604 | 74 | 330 | 0.0 | 0.0 | 0.00 | 0.00 | 0.00 | 94 | 1017.2 |
| 20260901071104 | 74 | 330 | 0.0 | 0.0 | 0.00 | 0.00 | 0.00 | 94 | 1017.2 |
| 20260901070604 | 74 | 330 | 0.0 | 0.0 | 0.00 | 0.00 | 0.00 | 94 | 1017.2 |
| 20260901070108 | 74 | 330 | 0.0 | 0.0 | 0.00 | 0.00 | 0.00 | 94 | 1017.4 |
| 20260901065604 | 74 | 330 | 0.0 | 0.0 | 0.00 | 0.00 | 0.00 | 94 | 1017.5 |
| 20260901065105 | 74 | 330 | 0.0 | 0.0 | 0.00 | 0.00 | 0.00 | 94 | 1017.5 |
| 20260901064604 | 74 | 330 | 0.0 | 0.0 | 0.00 | 0.00 | 0.00 | 94 | 1017.5 |
| 20260901064103 | 74 | 330 | 0.0 | 0.0 | 0.00 | 0.00 | 0.00 | 94 | 1017.5 |
| 20260901063604 | 74 | 330 | 0.0 | 0.0 | 0.00 | 0.00 | 0.00 | 94 | 1017.6 |
| 20260901063104 | 74 | 330 | 0.0 | 0.0 | 0.00 | 0.00 | 0.00 | 94 | 1017.7 |
| 20260901062605 | 74 | 330 | 0.0 | 0.0 | 0.00 | 0.00 | 0.00 | 94 | 1017.9 |
| 20260901062104 | 74 | 330 | 0.0 | 0.0 | 0.00 | 0.00 | 0.00 | 94 | 1018.0 |
| 20260901061604 | 74 | 330 | 0.0 | 0.0 | 0.00 | 0.00 | 0.00 | 94 | 1018.1 |
| 20260901061104 | 74 | 331 | 0.0 | 0.0 | 0.00 | 0.00 | 0.00 | 94 | 1018.3 |
| 20260901060604 | 74 | 334 | 0.0 | 0.0 | 0.00 | 0.00 | 0.00 | 94 | 1018.3 |
| 20260901060109 | 75 | 334 | 0.0 | 0.0 | 0.00 | 0.00 | 0.00 | 94 | 1018.2 |
| 20260901055104 | 75 | 334 | 0.0 | 0.0 | 0.00 | 0.00 | 0.00 | 94 | 1018.3 |
| 20260901054604 | 75 | 334 | 0.0 | 0.0 | 0.00 | 0.00 | 0.00 | 94 | 1018.4 |
| 20260901054104 | 75 | 334 | 0.0 | 0.0 | 0.00 | 0.00 | 0.00 | 94 | 1018.4 |
| 20260901053604 | 75 | 334 | 0.0 | 0.0 | 0.00 | 0.00 | 0.00 | 94 | 1018.4 |
| 20260901053105 | 75 | 334 | 0.0 | 0.0 | 0.00 | 0.00 | 0.00 | 94 | 1018.4 |
| 20260901052604 | 75 | 334 | 0.0 | 0.0 | 0.00 | 0.00 | 0.00 | 94 | 1018.5 |
| 20260901052104 | 75 | 336 | 0.0 | 0.0 | 0.00 | 0.00 | 0.00 | 94 | 1018.6 |
| 20260901051604 | 75 | 336 | 0.0 | 0.0 | 0.00 | 0.00 | 0.00 | 94 | 1018.5 |
| 20260901051104 | 75 | 336 | 0.0 | 0.0 | 0.00 | 0.00 | 0.00 | 94 | 1018.6 |
| 20260901050606 | 75 | 336 | 0.0 | 10.0 | 0.00 | 0.00 | 0.00 | 94 | 1018.6 |
| 20260901050110 | 75 | 27 | 0.0 | 0.0 | 0.00 | 0.00 | 0.00 | 94 | 1018.7 |
| 20260901045106 | 75 | 34 | 0.0 | 0.0 | 0.00 | 0.00 | 0.00 | 94 | 1018.7 |
| 20260901044106 | 76 | 34 | 0.0 | 0.0 | 0.00 | 0.00 | 0.00 | 93 | 1018.8 |
| 20260901042605 | 76 | 34 | 0.0 | 0.0 | 0.00 | 0.00 | 0.00 | 94 | 1018.9 |
| 20260901042106 | 76 | 34 | 0.0 | 0.0 | 0.00 | 0.00 | 0.00 | 93 | 1018.9 |
| 20260901041605 | 76 | 34 | 0.0 | 0.0 | 0.00 | 0.00 | 0.00 | 93 | 1018.9 |
| 20260901041106 | 76 | 34 | 0.0 | 0.0 | 0.00 | 0.00 | 0.00 | 93 | 1018.9 |
| 20260901040605 | 76 | 34 | 0.0 | 0.0 | 0.00 | 0.00 | 0.00 | 93 | 1018.9 |
| 20260901035606 | 76 | 34 | 0.0 | 0.0 | 0.00 | 0.00 | 0.00 | 93 | 1018.9 |
| 20260901035105 | 76 | 34 | 0.0 | 0.0 | 0.00 | 0.00 | 0.00 | 93 | 1018.9 |
| 20260901034105 | 76 | 34 | 0.0 | 0.0 | 0.00 | 0.00 | 0.00 | 93 | 1019.0 |
| 20260901033606 | 76 | 34 | 0.0 | 0.0 | 0.00 | 0.00 | 0.00 | 93 | 1019.1 |
| 20260901033105 | 76 | 34 | 0.0 | 0.0 | 0.00 | 0.00 | 0.00 | 93 | 1019.1 |
| 20260901032606 | 76 | 34 | 0.0 | 0.0 | 0.00 | 0.00 | 0.00 | 93 | 1019.1 |
| 20260901032106 | 76 | 34 | 0.0 | 0.0 | 0.00 | 0.00 | 0.00 | 93 | 1019.1 |
| 20260901031605 | 76 | 34 | 0.0 | 0.0 | 0.00 | 0.00 | 0.00 | 93 | 1019.1 |
| 20260901031106 | 76 | 34 | 0.0 | 0.0 | 0.00 | 0.00 | 0.00 | 93 | 1019.2 |
| 20260901030605 | 76 | 34 | 0.0 | 0.0 | 0.00 | 0.00 | 0.00 | 93 | 1019.1 |
| 20260901030110 | 76 | 34 | 0.0 | 0.0 | 0.00 | 0.00 | 0.00 | 93 | 1019.1 |
| 20260901025605 | 76 | 34 | 0.0 | 0.0 | 0.00 | 0.00 | 0.00 | 93 | 1019.1 |
| 20260901024605 | 76 | 34 | 0.0 | 0.0 | 0.00 | 0.00 | 0.00 | 93 | 1019.0 |
| 20260901024106 | 76 | 34 | 0.0 | 0.0 | 0.00 | 0.00 | 0.00 | 93 | 1019.0 |
| 20260901023606 | 76 | 34 | 0.0 | 0.0 | 0.00 | 0.00 | 0.00 | 93 | 1019.1 |
| 20260901023105 | 76 | 34 | 0.0 | 0.0 | 0.00 | 0.00 | 0.00 | 93 | 1019.1 |
| 20260901022606 | 77 | 34 | 0.0 | 0.0 | 0.00 | 0.00 | 0.00 | 93 | 1019.0 |
| 20260901022105 | 77 | 34 | 0.0 | 0.0 | 0.00 | 0.00 | 0.00 | 93 | 1019.0 |
| 20260901021606 | 77 | 34 | 0.0 | 0.0 | 0.00 | 0.00 | 0.00 | 92 | 1019.0 |
| 20260901021105 | 77 | 34 | 0.0 | 0.0 | 0.00 | 0.00 | 0.00 | 92 | 1018.8 |
| 20260901020606 | 77 | 34 | 0.0 | 0.0 | 0.00 | 0.00 | 0.00 | 92 | 1018.7 |
| 20260901020109 | 77 | 34 | 0.0 | 0.0 | 0.00 | 0.00 | 0.00 | 92 | 1018.6 |
| 20260901015106 | 77 | 34 | 0.0 | 0.0 | 0.00 | 0.00 | 0.00 | 92 | 1018.5 |
| 20260901014605 | 77 | 34 | 0.0 | 0.0 | 0.00 | 0.00 | 0.00 | 92 | 1018.5 |
| 20260901013606 | 77 | 34 | 0.0 | 0.0 | 0.00 | 0.00 | 0.00 | 92 | 1018.4 |
| 20260901013106 | 77 | 34 | 0.0 | 0.0 | 0.00 | 0.00 | 0.00 | 92 | 1018.4 |
| 20260901012605 | 77 | 34 | 0.0 | 0.0 | 0.00 | 0.00 | 0.00 | 92 | 1018.4 |
| 20260901011605 | 77 | 34 | 0.0 | 0.0 | 0.00 | 0.00 | 0.00 | 92 | 1018.2 |
| 20260901011106 | 77 | 34 | 0.0 | 0.0 | 0.00 | 0.00 | 0.00 | 92 | 1018.2 |
| 20260901010110 | 78 | 34 | 0.0 | 0.0 | 0.00 | 0.00 | 0.00 | 92 | 1018.0 |
| 20260901005605 | 78 | 34 | 0.0 | 0.0 | 0.00 | 0.00 | 0.00 | 92 | 1018.0 |
| 20260901005106 | 78 | 34 | 0.0 | 0.0 | 0.00 | 0.00 | 0.00 | 92 | 1017.9 |
| 20260901004606 | 78 | 34 | 0.0 | 0.0 | 0.00 | 0.00 | 0.00 | 92 | 1017.8 |
| 20260901004105 | 78 | 34 | 0.0 | 0.0 | 0.00 | 0.00 | 0.00 | 92 | 1017.9 |
| 20260901003605 | 78 | 34 | 0.0 | 0.0 | 0.00 | 0.00 | 0.00 | 92 | 1018.0 |
| 20260901003106 | 78 | 34 | 0.0 | 0.0 | 0.00 | 0.00 | 0.00 | 91 | 1018.0 |
| 20260901001605 | 78 | 34 | 0.0 | 0.0 | 0.00 | 0.00 | 0.00 | 91 | 1017.9 |
| 20260901001105 | 78 | 34 | 0.0 | 0.0 | 0.00 | 0.00 | 0.00 | 91 | 1017.9 |
| 20260901000605 | 78 | 34 | 0.0 | 0.0 | 0.00 | 0.00 | 0.00 | 91 | 1017.9 |
| 20260831235605 | 78 | 34 | 0.0 | 0.0 | 0.00 | 0.00 | 0.00 | 91 | 1017.6 |
| 20260831235105 | 78 | 34 | 0.0 | 0.0 | 0.00 | 0.00 | 0.00 | 91 | 1017.7 |
| 20260831234106 | 78 | 34 | 0.0 | 0.0 | 0.00 | 0.00 | 0.00 | 91 | 1017.6 |
| 20260831233605 | 78 | 34 | 0.0 | 0.0 | 0.00 | 0.00 | 0.00 | 91 | 1017.6 |
| 20260831233106 | 78 | 34 | 0.0 | 0.0 | 0.00 | 0.00 | 0.00 | 91 | 1017.6 |
| 20260831232605 | 78 | 34 | 0.0 | 0.0 | 0.00 | 0.00 | 0.00 | 91 | 1017.5 |
| 20260831232105 | 78 | 34 | 0.0 | 0.0 | 0.00 | 0.00 | 0.00 | 90 | 1017.6 |
| 20260831231605 | 78 | 34 | 0.0 | 0.0 | 0.00 | 0.00 | 0.00 | 90 | 1017.6 |
| 20260831230605 | 78 | 39 | 0.0 | 0.0 | 0.00 | 0.00 | 0.00 | 90 | 1017.5 |
| 20260831230110 | 78 | 38 | 0.0 | 0.0 | 0.00 | 0.00 | 0.00 | 90 | 1017.4 |
| 20260831225105 | 78 | 35 | 0.0 | 0.0 | 0.00 | 0.00 | 0.00 | 90 | 1017.6 |
| 20260831224607 | 78 | 35 | 0.0 | 0.0 | 0.00 | 0.00 | 0.00 | 90 | 1017.6 |
| 20260831224105 | 79 | 35 | 0.0 | 0.0 | 0.00 | 0.00 | 0.00 | 90 | 1017.7 |
| 20260831223605 | 79 | 35 | 0.0 | 0.0 | 0.00 | 0.00 | 0.00 | 89 | 1017.8 |
| 20260831223105 | 79 | 35 | 0.0 | 0.0 | 0.00 | 0.00 | 0.00 | 89 | 1017.7 |
| 20260831222605 | 79 | 35 | 0.0 | 0.0 | 0.00 | 0.00 | 0.00 | 89 | 1017.7 |
| 20260831222105 | 79 | 35 | 0.0 | 0.0 | 0.00 | 0.00 | 0.00 | 89 | 1017.9 |
| 20260831221605 | 79 | 34 | 0.0 | 0.0 | 0.00 | 0.00 | 0.00 | 89 | 1017.9 |
| 20260831220606 | 79 | 34 | 0.0 | 0.0 | 0.00 | 0.00 | 0.00 | 89 | 1017.6 |
| 20260831220110 | 79 | 22 | 0.0 | 1.0 | 0.00 | 0.00 | 0.00 | 89 | 1017.8 |
| 20260831215106 | 79 | 16 | 0.0 | 0.0 | 0.00 | 0.00 | 0.00 | 89 | 1017.8 |
| 20260831214105 | 79 | 16 | 0.0 | 0.0 | 0.00 | 0.00 | 0.00 | 89 | 1017.8 |
| 20260831213605 | 80 | 40 | 0.0 | 0.0 | 0.00 | 0.00 | 0.00 | 89 | 1017.9 |
| 20260831213105 | 80 | 61 | 0.0 | 2.0 | 0.00 | 0.00 | 0.00 | 88 | 1017.7 |
| 20260831212606 | 80 | 40 | 0.0 | 0.0 | 0.00 | 0.00 | 0.00 | 88 | 1017.6 |
| 20260831212105 | 80 | 40 | 0.0 | 1.0 | 0.00 | 0.00 | 0.00 | 88 | 1017.5 |
| 20260831211605 | 80 | 47 | 0.0 | 0.0 | 0.00 | 0.00 | 0.00 | 87 | 1017.7 |
| 20260831211105 | 80 | 66 | 0.0 | 1.0 | 0.00 | 0.00 | 0.00 | 87 | 1017.7 |
| 20260831210605 | 80 | 52 | 0.0 | 1.0 | 0.00 | 0.00 | 0.00 | 86 | 1017.6 |
| 20260831205605 | 81 | 115 | 0.0 | 1.0 | 0.00 | 0.00 | 0.00 | 85 | 1017.7 |
| 20260831205105 | 81 | 28 | 0.0 | 3.0 | 0.00 | 0.01 | 0.00 | 85 | 1017.8 |
| 20260831204605 | 81 | 35 | 0.0 | 2.0 | 0.00 | 0.01 | 0.00 | 87 | 1017.9 |
| 20260831203605 | 81 | 47 | 0.0 | 1.0 | 0.00 | 0.01 | 0.00 | 88 | 1017.6 |
| 20260831203105 | 81 | 78 | 0.0 | 1.0 | 0.00 | 0.01 | 0.00 | 88 | 1017.7 |
| 20260831202605 | 81 | 66 | 0.0 | 2.0 | 0.00 | 0.01 | 0.00 | 87 | 1017.8 |
| 20260831201605 | 81 | 46 | 0.0 | 1.0 | 0.00 | 0.01 | 0.00 | 85 | 1017.9 |
| 20260831201105 | 81 | 266 | 0.0 | 1.0 | 0.00 | 0.01 | 0.00 | 82 | 1017.7 |
| 20260831200605 | 81 | 44 | 0.0 | 1.0 | 0.00 | 0.01 | 0.00 | 83 | 1017.6 |
| 20260831200109 | 81 | 35 | 0.0 | 0.0 | 0.00 | 0.01 | 0.00 | 83 | 1017.6 |
| 20260831195605 | 81 | 145 | 0.0 | 1.0 | 0.00 | 0.01 | 0.00 | 84 | 1017.5 |
| 20260831195105 | 82 | 61 | 0.0 | 3.0 | 0.00 | 0.01 | 0.00 | 84 | 1017.5 |
| 20260831194605 | 82 | 331 | 0.0 | 2.0 | 0.00 | 0.01 | 0.00 | 83 | 1017.4 |
| 20260831194104 | 82 | 302 | 0.0 | 1.0 | 0.00 | 0.01 | 0.00 | 83 | 1017.4 |
| 20260831193605 | 82 | 314 | 0.0 | 8.0 | 0.00 | 0.01 | 0.00 | 83 | 1017.4 |
| 20260831193105 | 84 | 311 | 1.0 | 7.0 | 0.00 | 0.01 | 0.00 | 80 | 1017.4 |
| 20260831192605 | 86 | 77 | 1.0 | 10.0 | 0.00 | 0.01 | 0.00 | 78 | 1017.2 |
| 20260831192105 | 88 | 284 | 0.0 | 2.0 | 0.00 | 0.01 | 0.00 | 74 | 1017.2 |
| 20260831191605 | 90 | 298 | 0.0 | 3.0 | 0.00 | 0.01 | 0.00 | 71 | 1017.0 |
| 20260831191106 | 92 | 335 | 0.0 | 3.0 | 0.00 | 0.01 | 0.00 | 68 | 1016.9 |
| 20260831190605 | 93 | 310 | 0.0 | 1.0 | 0.00 | 0.01 | 0.00 | 66 | 1017.0 |
| 20260831185605 | 92 | 40 | 0.0 | 0.0 | 0.00 | 0.01 | 0.00 | 64 | 1017.0 |
| 20260831185105 | 92 | 39 | 0.0 | 0.0 | 0.00 | 0.01 | 0.00 | 64 | 1017.1 |
| 20260831184105 | 92 | 55 | 0.0 | 0.0 | 0.00 | 0.01 | 0.00 | 70 | 1017.2 |
| 20260831183605 | 92 | 319 | 0.0 | 0.0 | 0.00 | 0.01 | 0.00 | 64 | 1017.2 |
| 20260831183105 | 91 | 317 | 0.0 | 0.0 | 0.00 | 0.01 | 0.00 | 69 | 1017.3 |
| 20260831182605 | 91 | 317 | 0.0 | 0.0 | 0.00 | 0.01 | 0.00 | 68 | 1017.3 |
| 20260831181605 | 90 | 317 | 0.0 | 0.0 | 0.00 | 0.01 | 0.00 | 70 | 1017.6 |
| 20260831181105 | 91 | 317 | 0.0 | 0.0 | 0.00 | 0.01 | 0.00 | 67 | 1017.7 |
| 20260831180605 | 91 | 317 | 0.0 | 0.0 | 0.00 | 0.01 | 0.00 | 68 | 1017.7 |
| 20260831180109 | 91 | 318 | 0.0 | 0.0 | 0.00 | 0.01 | 0.00 | 65 | 1017.7 |
| 20260831175605 | 91 | 310 | 0.0 | 0.0 | 0.00 | 0.01 | 0.00 | 67 | 1017.7 |
| 20260831175104 | 91 | 331 | 0.0 | 0.0 | 0.00 | 0.01 | 0.00 | 65 | 1017.9 |
| 20260831174604 | 91 | 14 | 0.0 | 0.0 | 0.00 | 0.01 | 0.00 | 68 | 1018.0 |
| 20260831174105 | 91 | 314 | 0.0 | 3.0 | 0.00 | 0.01 | 0.00 | 66 | 1018.1 |
| 20260831173605 | 91 | 318 | 0.0 | 0.0 | 0.00 | 0.01 | 0.00 | 66 | 1018.1 |
| 20260831173105 | 90 | 314 | 0.0 | 0.0 | 0.00 | 0.01 | 0.00 | 69 | 1018.2 |
| 20260831172605 | 91 | 314 | 0.0 | 0.0 | 0.00 | 0.01 | 0.00 | 66 | 1018.3 |
| 20260831172104 | 91 | 305 | 0.0 | 0.0 | 0.00 | 0.01 | 0.00 | 69 | 1018.4 |
| 20260831171605 | 90 | 135 | 0.0 | 0.0 | 0.00 | 0.01 | 0.00 | 71 | 1018.6 |
| 20260831171105 | 89 | 135 | 0.0 | 0.0 | 0.00 | 0.01 | 0.00 | 70 | 1018.6 |
| 20260831170605 | 89 | 111 | 0.0 | 0.0 | 0.00 | 0.01 | 0.00 | 71 | 1018.7 |
| 20260831170109 | 90 | 13 | 0.0 | 0.0 | 0.00 | 0.01 | 0.00 | 69 | 1018.7 |
| 20260831165604 | 90 | 13 | 0.0 | 0.0 | 0.00 | 0.01 | 0.00 | 71 | 1018.8 |
| 20260831165105 | 91 | 13 | 0.0 | 0.0 | 0.00 | 0.01 | 0.00 | 66 | 1018.9 |
| 20260831164605 | 90 | 13 | 0.0 | 0.0 | 0.00 | 0.01 | 0.00 | 71 | 1019.0 |
| 20260831163605 | 90 | 44 | 0.0 | 0.0 | 0.00 | 0.01 | 0.00 | 68 | 1019.2 |